Lincoln County, Oregon, United States
Lat: 44.65N, Lon: 123.85W
Wx Zone: ORZ004
Local Info
Past Weather Observations for Yesterday

NOTE: This archive is for the closest National Weather Service station to Lincoln County. Information may differ from the station used for current weather conditions.

Click here for Long-term Archive

Time Weather Temperature Dewpoint Humidity Pressure Winds Precip Visibility
23:55
Overcast
59°F / 15°C 59°F / 15°C 100% 30.04 in
(1017 mb)
Calm - 10SM
23:35
Overcast
59°F / 15°C 59°F / 15°C 100% 30.04 in
(1017 mb)
Calm - 10SM
23:15
Overcast
59°F / 15°C 59°F / 15°C 100% 30.04 in
(1017 mb)
Calm - 10SM
22:55
Mostly Cloudy
59°F / 15°C 59°F / 15°C 100% 30.04 in
(1017 mb)
Calm - 10SM
22:35
Mostly Cloudy
59°F / 15°C 59°F / 15°C 100% 30.04 in
(1017 mb)
Calm - 10SM
22:15
Overcast
59°F / 15°C 59°F / 15°C 100% 30.04 in
(1017 mb)
Calm - 7SM
21:55
Overcast
Fog
59°F / 15°C 59°F / 15°C 100% 30.04 in
(1017 mb)
Calm - 1/2SM
21:35
Overcast
Fog
59°F / 15°C 59°F / 15°C 100% 30.04 in
(1017 mb)
Calm - 1/2SM
21:15
Overcast
Fog And Mist
59°F / 15°C 59°F / 15°C 100% 30.04 in
(1017 mb)
Calm - 3SM
20:55
Overcast
Fog
59°F / 15°C 59°F / 15°C 100% 30.04 in
(1017 mb)
Calm - 1/2SM
20:35
Overcast
Fog
59°F / 15°C 59°F / 15°C 100% 30.04 in
(1017 mb)
Calm - 1/4SM
20:15
Overcast
Fog And Mist
59°F / 15°C 59°F / 15°C 100% 30.04 in
(1017 mb)
Calm - 1SM
19:55
Overcast
Fog
59°F / 15°C 57°F / 14°C 94% 30.04 in
(1017 mb)
Calm - 1/2SM
19:35
Overcast
Drizzle
59°F / 15°C 57°F / 14°C 94% 30.04 in
(1017 mb)
Calm - 1/4SM
19:15
Overcast
Drizzle
59°F / 15°C 57°F / 14°C 94% 30.04 in
(1017 mb)
SW 4.6 mph
(SW 7 kph)
- M1/4SM
18:55
Overcast
Fog
59°F / 15°C 57°F / 14°C 94% 30.04 in
(1017 mb)
SW 4.6 mph
(SW 7 kph)
- M1/4SM
18:35
Overcast
Fog
59°F / 15°C 57°F / 14°C 94% 30.04 in
(1017 mb)
SSW 4.6 mph
(SSW 7 kph)
- 1/4SM
18:15
Overcast
Fog
59°F / 15°C 57°F / 14°C 94% 30.04 in
(1017 mb)
Calm - M1/4SM
17:55
Overcast
Fog
59°F / 15°C 59°F / 15°C 100% 30.01 in
(1016 mb)
Calm - 1/2SM
17:35
Overcast
61°F / 16°C 59°F / 15°C 94% 30.01 in
(1016 mb)
W 3.5 mph
(W 6 kph)
- 10SM
17:15
Overcast
Fog And Mist
61°F / 16°C 59°F / 15°C 94% 30.04 in
(1017 mb)
Calm - 2SM
16:55
Overcast
Fog
61°F / 16°C 59°F / 15°C 94% 30.04 in
(1017 mb)
Calm - 1/2SM
16:35
Overcast
Fog And Mist
61°F / 16°C 59°F / 15°C 94% 30.04 in
(1017 mb)
Calm - 1SM
16:15
Overcast
61°F / 16°C 59°F / 15°C 94% 30.06 in
(1018 mb)
Calm - 10SM
15:55
Overcast
Fog And Mist
61°F / 16°C 59°F / 15°C 94% 30.06 in
(1018 mb)
Calm - 3SM
15:35
Overcast
Fog And Mist
61°F / 16°C 59°F / 15°C 94% 30.06 in
(1018 mb)
Calm - 5SM
15:15
Overcast
Fog And Mist
61°F / 16°C 59°F / 15°C 94% 30.06 in
(1018 mb)
SSW 3.5 mph
(SSW 6 kph)
- 2SM
14:55
Overcast
61°F / 16°C 59°F / 15°C 94% 30.06 in
(1018 mb)
SW 3.5 mph
(SW 6 kph)
- 7SM
14:35
Overcast
61°F / 16°C 59°F / 15°C 94% 30.06 in
(1018 mb)
SSW 3.5 mph
(SSW 6 kph)
- 7SM
14:15
Overcast
61°F / 16°C 59°F / 15°C 94% 30.06 in
(1018 mb)
SSW 3.5 mph
(SSW 6 kph)
- 10SM
13:55
Overcast
61°F / 16°C 59°F / 15°C 94% 30.06 in
(1018 mb)
SSW 3.5 mph
(SSW 6 kph)
- 10SM
13:35
Mostly Cloudy
61°F / 16°C 59°F / 15°C 94% 30.06 in
(1018 mb)
SSW 4.6 mph
(SSW 7 kph)
- 10SM
13:15
Mostly Cloudy
63°F / 17°C 59°F / 15°C 88% 30.06 in
(1018 mb)
SSW 5.8 mph
(SSW 9 kph)
- 10SM
12:55
Overcast
63°F / 17°C 59°F / 15°C 88% 30.06 in
(1018 mb)
W 3.5 mph
(W 6 kph)
- 10SM
12:35
Overcast
63°F / 17°C 59°F / 15°C 88% 30.06 in
(1018 mb)
Calm - 10SM
12:15
Mostly Cloudy
63°F / 17°C 59°F / 15°C 88% 30.06 in
(1018 mb)
SSW 3.5 mph
(SSW 6 kph)
- 10SM
11:55
Overcast
63°F / 17°C 59°F / 15°C 88% 30.06 in
(1018 mb)
WNW 4.6 mph
(WNW 7 kph)
- 10SM
11:35
Overcast
64°F / 18°C 59°F / 15°C 83% 30.06 in
(1018 mb)
W 5.8 mph
(W 9 kph)
- 10SM
11:15
Overcast
64°F / 18°C 59°F / 15°C 83% 30.06 in
(1018 mb)
NW 3.5 mph
(NW 6 kph)
- 10SM
10:55
Overcast
63°F / 17°C 59°F / 15°C 88% 30.06 in
(1018 mb)
Calm - 10SM
10:35
Overcast
63°F / 17°C 59°F / 15°C 88% 30.06 in
(1018 mb)
W 3.5 mph
(W 6 kph)
- 10SM
10:15
Overcast
63°F / 17°C 59°F / 15°C 88% 30.06 in
(1018 mb)
Calm - 10SM
09:55
Overcast
63°F / 17°C 59°F / 15°C 88% 30.06 in
(1018 mb)
NW 3.5 mph
(NW 6 kph)
- 10SM
09:35
Overcast
61°F / 16°C 59°F / 15°C 94% 30.06 in
(1018 mb)
WNW 5.8 mph
(WNW 9 kph)
- 10SM
09:15
Overcast
61°F / 16°C 59°F / 15°C 94% 30.06 in
(1018 mb)
WNW 4.6 mph
(WNW 7 kph)
- 10SM
08:55
Overcast
61°F / 16°C 59°F / 15°C 94% 30.06 in
(1018 mb)
WNW 3.5 mph
(WNW 6 kph)
- 10SM
08:35
Overcast
61°F / 16°C 59°F / 15°C 94% 30.06 in
(1018 mb)
Calm - 10SM
08:15
Overcast
59°F / 15°C 59°F / 15°C 100% 30.06 in
(1018 mb)
Calm - 10SM
07:55
Overcast
59°F / 15°C 59°F / 15°C 100% 30.06 in
(1018 mb)
Calm - 10SM
07:35
Overcast
Fog And Mist
59°F / 15°C 59°F / 15°C 100% 30.06 in
(1018 mb)
Calm - 5SM
07:15
Overcast
59°F / 15°C 59°F / 15°C 100% 30.06 in
(1018 mb)
Calm - 7SM
06:55
Overcast
59°F / 15°C 59°F / 15°C 100% 30.06 in
(1018 mb)
Calm - 10SM
06:35
Overcast
59°F / 15°C 59°F / 15°C 100% 30.06 in
(1018 mb)
Calm - 10SM
06:15
Overcast
59°F / 15°C 59°F / 15°C 100% 30.06 in
(1018 mb)
Calm - 10SM
05:55
Overcast
59°F / 15°C 59°F / 15°C 100% 30.06 in
(1018 mb)
ENE 3.5 mph
(ENE 6 kph)
- 10SM
05:35
Overcast
Fog And Mist
59°F / 15°C 59°F / 15°C 100% 30.06 in
(1018 mb)
Calm - 5SM
05:15
Overcast
Fog And Mist
59°F / 15°C 59°F / 15°C 100% 30.06 in
(1018 mb)
Calm - 4SM
04:55
Overcast
Fog And Mist
57°F / 14°C 57°F / 14°C 100% 30.04 in
(1017 mb)
Calm - 4SM
04:35
Overcast
Fog And Mist
57°F / 14°C 57°F / 14°C 100% 30.04 in
(1017 mb)
Calm - 5SM
04:15
Overcast
Fog And Mist
57°F / 14°C 57°F / 14°C 100% 30.04 in
(1017 mb)
Calm - 3SM
03:55
Overcast
Fog And Mist
57°F / 14°C 57°F / 14°C 100% 30.06 in
(1018 mb)
Calm - 1 3/4SM
03:35
Overcast
Fog And Mist
57°F / 14°C 57°F / 14°C 100% 30.06 in
(1018 mb)
Calm - 1 3/4SM
03:15
Overcast
Fog And Mist
55°F / 13°C 55°F / 13°C 100% 30.06 in
(1018 mb)
Calm - 1SM
02:55
Overcast
Fog And Mist
55°F / 13°C 55°F / 13°C 100% 30.06 in
(1018 mb)
Calm - 3/4SM
02:35
Overcast
Fog
55°F / 13°C 55°F / 13°C 100% 30.06 in
(1018 mb)
Calm - 1/2SM
02:15
Overcast
Fog
55°F / 13°C 55°F / 13°C 100% 30.06 in
(1018 mb)
Calm - 1/2SM
01:55
Overcast
Fog
55°F / 13°C 55°F / 13°C 100% 30.06 in
(1018 mb)
Calm - 1/2SM
01:35
Overcast
Fog
55°F / 13°C 55°F / 13°C 100% 30.06 in
(1018 mb)
Calm - 1/2SM
01:15
Overcast
Fog
55°F / 13°C 55°F / 13°C 100% 30.06 in
(1018 mb)
NW 3.5 mph
(NW 6 kph)
- 1/2SM
00:55
Overcast
Fog
55°F / 13°C 55°F / 13°C 100% 30.06 in
(1018 mb)
Calm - 1/2SM
00:35
Overcast
Fog
55°F / 13°C 55°F / 13°C 100% 30.06 in
(1018 mb)
Calm - 1/2SM
00:15
Overcast
Fog And Mist
55°F / 13°C 55°F / 13°C 100% 30.06 in
(1018 mb)
Calm - 1SM
Time Weather Temperature Dewpoint Humidity Pressure Winds Precip Visibility


Weather for websites

WeatherForYou.com, LLC is not responsible for any damages or problems caused by this service. Current weather conditions are obtained from the closest station including government and personal stations which may have varying degrees of accuracy. Weather forecasts are derived from the NOAA NDFD. Like all things, this site belongs to Jesus Christ... He just trusts me to maintain it. If you have any questions or comments email webmaster@weatherforyou.com

Copyright © 2014, WeatherForYou.com LLC. All rights reserved.